Location: Bratislava
(0.0000°N, 17.1167°E)
Time: 03:39:15
(UTC+01:00)

H-2A R/B - Pass Details

Date: 24 January 2021
Orbit: 734 x 836 km, 98.2° (Epoch: 06 March)

Event Time Altitude Azimuth Distance (km) Brightness Sun altitude
Rises 18:32:43 0° 150° (SSE) 3,158 5.1 -6.8°
Reaches altitude 10° 18:35:12 10° 140° (SE) 2,235 4.2 -7.4°
Maximum altitude 18:39:32 32° 78° (ENE) 1,246 2.6 -8.5°
Drops below altitude 10° 18:43:54 10° 15° (NNE) 2,250 4.1 -9.5°
Sets 18:46:24 0° 6° (N) 3,184 5.0 -10.1°
